This is the latest recevied weather packets stored in our database for station/object K1RFS. If no packets are shown the sender has not sent any weather packets the latest 10 day(s).
| Time | Temp. | Humidity | Pressure | Rain* | Wind** | Luminosity | Snow |
|---|---|---|---|---|---|---|---|
| 1787934909 | 26.11° C | 43% | 1005.8 hPa | 0 mm | - | 101 W/m² | - |
| 1787934610 | 25.56° C | 45% | 1005.6 hPa | 0 mm | - | 129 W/m² | - |
| 1787934304 | 25.56° C | 46% | 1005.7 hPa | 0 mm | - | 158 W/m² | - |
| 1787934003 | 25.56° C | 44% | 1005.4 hPa | 0 mm | - | 161 W/m² | - |
| 1787933702 | 25.56° C | 41% | 1005.6 hPa | 0 mm | - | 168 W/m² | - |
| 1787933397 | 25.56° C | 43% | 1005.5 hPa | 0 mm | - | 153 W/m² | - |
| 1787933097 | 25.56° C | 40% | 1005.5 hPa | 0 mm | - | 128 W/m² | - |
| 1787932795 | 25.56° C | 40% | 1005.2 hPa | 0 mm | - | 108 W/m² | - |
| 1787932491 | 25° C | 40% | 1005.2 hPa | 0 mm | - | 96 W/m² | - |
| 1787932186 | 25° C | 40% | 1005.4 hPa | 0 mm | - | 92 W/m² | - |
| 1787931884 | 25° C | 41% | 1005 hPa | 0 mm | - | 98 W/m² | - |
| 1787931579 | 25° C | 42% | 1005.2 hPa | 0 mm | - | 90 W/m² | - |
| 1787931274 | 25° C | 41% | 1005.7 hPa | 0 mm | - | 73 W/m² | - |
| 1787930973 | 25° C | 41% | 1006.1 hPa | 0 mm | - | 75 W/m² | - |
| 1787930673 | 25° C | 40% | 1005.8 hPa | 0 mm | - | 57 W/m² | - |
| 1787930368 | 24.44° C | 43% | 1005.7 hPa | 0 mm | - | 47 W/m² | - |
| 1787930063 | 24.44° C | 45% | 1005.6 hPa | 0 mm | - | 49 W/m² | - |
| 1787929761 | 24.44° C | 44% | 1005.5 hPa | 0 mm | - | 55 W/m² | - |
| 1787929456 | 24.44° C | 44% | 1005.7 hPa | 0 mm | - | 52 W/m² | - |
| 1787929154 | 23.89° C | 42% | 1005.5 hPa | 0 mm | - | 56 W/m² | - |
| 1787928849 | 23.89° C | 44% | 1005.7 hPa | 0 mm | - | 63 W/m² | - |
| 1787928549 | 23.89° C | 45% | 1005.7 hPa | 0 mm | - | 53 W/m² | - |
| 1787928248 | 23.89° C | 45% | 1005.5 hPa | 0 mm | - | 59 W/m² | - |
| 1787927947 | 23.33° C | 48% | 1005.3 hPa | 0 mm | - | 49 W/m² | - |
| 1787927641 | 22.78° C | 52% | 1005.4 hPa | 0 mm | - | 61 W/m² | - |
* Rain latest hour (hover to see other rain measurements)
** Current wind speed in m/s (hover to see current wind gust speed)